"Pseudo-MPEC" for P11lbp3

Created 2021 Sep 22 17:07:11 UT using Find_Orb

Click here for an explanation of pseudo-MPECs

 
 Astrometry: 
     P11lbp3  C2021 09 05$mf=og%:=AstrometryeUORyINVvV='7q\%7^@Q,3FM8AUgv+C(^F51
     P11lbp3  C2021 09 05GV;wfXredacted;Y$PP`UBDv8O\KO0=RQrs(Wq0A1o-i(esYOU$%F51
     P11lbp3  C2021 09 05GT;r)Ki5W;/_sZIiRjTGRwPqpcwEr$?0@k9EZOu8;HrekJ/EK;BUF51
     P11lbp3  C2021 09 05g98j@clickq/*7D\4M_0?T27s$;)#@xv?mn^+_XHcmI-P74iGSw4F51
     P11lbp3  C2021 09 15Dql9To3,o/LbX0Hqh$?QLB8ZE[3BoWmaJG1^TGCYjEPX#JdOFVQZF51
     P11lbp3  C2021 09 157PJMe\@',B8DherevrlVo%F:VXZvmSyaD)Wn0vP+#7Mo5#h[37aYF51
     P11lbp3  C2021 09 15,qkJQhq1uJL?T)gdZo]/vSDyuf2gE^kBiYnT.''LdnkDf:\uk5@DF51
     P11lbp3  C2021 09 15d1vAVoY!kH4_VBX]I^OF*D(Z5qTY[Tj2O!'.L072f3D$](U29V/MF51
     P11lbp3 |C2021 09 16EZ'$5INd$/L[\qG#+k'BNaQ`gjpP;1ysM5vUforSd[yRGs7lTY@;807
     P11lbp3 |C2021 09 160Z]UP3MEDLsK;oIpD)QDE]EsukMT2C?FtQ9!v8'ocCejF54O@2N#807
     P11lbp3 |C2021 09 16WGx#u-i5xTf7Uc)\2mYQ7%f%T`8)dI*L%#;w)QO7qAl4J)G=bxTB807
     P11lbp3 |C2021 09 17?ZP%L3Cu:wqqOU$ltE9.pBUg^.v'0W,\jexplanation*1bxg`o_807
     P11lbp3 |C2021 09 175Ja9q[90jcRyP6aqh6NOLrY^[1KAd0+L#-fQY+d.Fj%5[--ZQE;b807
     P11lbp3 |C2021 09 17q6h[Ma#)otoSg_qv,bUuC=9PwjPlR!\t6\Hx_Qm3!GAh-89Nhwk'807

Station data:
(807) Cerro Tololo Observatory, La Serena  (S30.169136 W70.805900)  Chile.
(F51) Pan-STARRS 1, Haleakala  (N20.707235 W156.255910)  US/Hawaii.
   Observers N. Primak, A. Schultz, S. Watters, J. Thiel, T. Goggia. Measurer
   PS1 Science Consortium. 1.8-m Ritchey-Chrétien + CCD.

Orbital elements:  P11lbp3
   Perihelion 2021 Nov 21.283865 +/- 0.0547803 TT =  6:48:45 (JD 2459539.783865)
Epoch 2021 Sep 17.0 TT = JDT 2459474.5   Earth MOID: 0.3363   Ma: 0.0867
M 343.55065674 +/- 0.1089673        (J2000 ecliptic)          AutoNEOCP
n   0.25196644 +/- 0.00166806       Peri.  262.31473 +/- 0.1223368
a   2.48260472 +/- 0.0109559        Node   144.48440 +/- 0.0660388
e   0.4790550 +/- 0.00179951        Incl.    7.56616 +/- 0.0294137
P   3.91                   H 22.3   G  0.15   U  8.4  
q 1.29330044 +/- 0.00136111    Q 3.67190900 +/- 0.0204024
From 14 observations 2021 Sept. 5-17; mean residual 0".11
Residuals in arcseconds: 
210905 F51  .03+  .24-    210915 F51  .10+  .07+    210916 807  .14-  .28-    
210905 F51  .07-  .04+    210915 F51  .04-  .08+    210917 807  .02+  .04+    
210905 F51  .10-  .21+    210915 F51  .02-  .05-    210917 807  .05-  .01+    
210905 F51  .14+  .01-    210916 807  .12+  .09+    210917 807  .04+  .09+    
210915 F51  .00   .08+    210916 807  .04-  .14-    

Ephemerides (geocentric):
Date (UTC) HH   RA              Dec         delta   r     elong  mag " sig PA
---- -- -- --  -------------   -----------  ------ ------ -----  --- ---- ---
2021 09 22 17  00 42 53.569   -11 41 11.40  .43899 1.4308 164.1 22.0 2.17  62
2021 09 22 18  00 42 54.598   -11 41 59.37  .43882 1.4306 164.1 22.0 2.19  62
2021 09 22 19  00 42 55.626   -11 42 47.35  .43865 1.4304 164.1 22.0 2.20  62
2021 09 22 20  00 42 56.653   -11 43 35.33  .43849 1.4303 164.1 22.0 2.22  62
2021 09 22 21  00 42 57.679   -11 44 23.32  .43832 1.4301 164.1 22.0 2.24  62
2021 09 22 22  00 42 58.704   -11 45 11.31  .43815 1.4299 164.1 22.0 2.26  62
2021 09 22 23  00 42 59.727   -11 45 59.31  .43798 1.4297 164.1 22.0 2.28  62
2021 09 23 00  00 43 00.749   -11 46 47.31  .43781 1.4296 164.1 22.0 2.30  62
2021 09 23 01  00 43 01.770   -11 47 35.32  .43764 1.4294 164.1 22.0 2.31  62
2021 09 23 02  00 43 02.790   -11 48 23.34  .43747 1.4292 164.1 22.0 2.33  62
2021 09 23 03  00 43 03.809   -11 49 11.36  .43731 1.4290 164.1 22.0 2.35  62
2021 09 23 04  00 43 04.827   -11 49 59.39  .43714 1.4288 164.1 22.0 2.37  62
2021 09 23 05  00 43 05.843   -11 50 47.42  .43697 1.4287 164.1 22.0 2.39  62
2021 09 23 06  00 43 06.859   -11 51 35.46  .43680 1.4285 164.1 22.0 2.41  62
2021 09 23 07  00 43 07.873   -11 52 23.50  .43664 1.4283 164.1 22.0 2.43  62
2021 09 23 08  00 43 08.886   -11 53 11.55  .43647 1.4281 164.1 22.0 2.44  62
2021 09 23 09  00 43 09.898   -11 53 59.60  .43631 1.4280 164.1 22.0 2.46  62
2021 09 23 10  00 43 10.909   -11 54 47.65  .43614 1.4278 164.1 22.0 2.48  62
2021 09 23 11  00 43 11.919   -11 55 35.71  .43597 1.4276 164.1 22.0 2.50  62
2021 09 23 12  00 43 12.928   -11 56 23.78  .43581 1.4274 164.1 22.0 2.52  62
2021 09 23 13  00 43 13.935   -11 57 11.85  .43564 1.4273 164.1 22.0 2.54  62
2021 09 23 14  00 43 14.942   -11 57 59.92  .43548 1.4271 164.1 22.0 2.56  62
2021 09 23 15  00 43 15.947   -11 58 48.00  .43532 1.4269 164.1 22.0 2.58  63
2021 09 23 16  00 43 16.952   -11 59 36.08  .43515 1.4267 164.1 22.0 2.60  63
2021 09 23 17  00 43 17.955   -12 00 24.16  .43499 1.4266 164.1 22.0 2.61  63
2021 09 23 18  00 43 18.957   -12 01 12.25  .43482 1.4264 164.1 22.0 2.63  63
2021 09 23 19  00 43 19.958   -12 02 00.34  .43466 1.4262 164.1 22.0 2.65  63
2021 09 23 20  00 43 20.958   -12 02 48.43  .43450 1.4260 164.1 22.0 2.67  63
2021 09 23 21  00 43 21.957   -12 03 36.53  .43433 1.4259 164.1 22.0 2.69  63
2021 09 23 22  00 43 22.954   -12 04 24.63  .43417 1.4257 164.1 22.0 2.71  63
2021 09 23 23  00 43 23.951   -12 05 12.73  .43401 1.4255 164.0 22.0 2.73  63
2021 09 24 00  00 43 24.946   -12 06 00.84  .43385 1.4254 164.0 22.0 2.75  63
2021 09 24 01  00 43 25.941   -12 06 48.95  .43369 1.4252 164.0 22.0 2.77  63
2021 09 24 02  00 43 26.934   -12 07 37.06  .43352 1.4250 164.0 22.0 2.79  63
2021 09 24 03  00 43 27.927   -12 08 25.17  .43336 1.4248 164.0 22.0 2.81  63
2021 09 24 04  00 43 28.918   -12 09 13.29  .43320 1.4247 164.0 22.0 2.83  63
2021 09 24 05  00 43 29.908   -12 10 01.40  .43304 1.4245 164.0 22.0 2.85  63
2021 09 24 06  00 43 30.897   -12 10 49.52  .43288 1.4243 164.0 22.0 2.87  63
2021 09 24 07  00 43 31.886   -12 11 37.64  .43272 1.4241 164.0 22.0 2.89  63
2021 09 24 08  00 43 32.873   -12 12 25.77  .43256 1.4240 164.0 22.0 2.91  63
2021 09 24 09  00 43 33.859   -12 13 13.89  .43240 1.4238 164.0 22.0 2.93  63
2021 09 24 10  00 43 34.844   -12 14 02.02  .43224 1.4236 164.0 21.9 2.95  63
2021 09 24 11  00 43 35.828   -12 14 50.14  .43208 1.4234 164.0 21.9 2.97  63
2021 09 24 12  00 43 36.811   -12 15 38.27  .43192 1.4233 164.0 21.9 2.99  63
2021 09 24 13  00 43 37.792   -12 16 26.40  .43176 1.4231 164.0 21.9 3.01  63
2021 09 24 14  00 43 38.773   -12 17 14.53  .43161 1.4229 164.0 21.9 3.03  63
2021 09 24 15  00 43 39.753   -12 18 02.66  .43145 1.4228 164.0 21.9 3.05  63
2021 09 24 16  00 43 40.732   -12 18 50.80  .43129 1.4226 164.0 21.9 3.07  63